Location: Akron Fire Department Station 11
(41.1400°N, 81.5503°W)
Time: 19:29:53
(UTC+00:00)

X-37B - Visible Passes

Search period start: 28 September 2020 00:00
Search period end: 08 October 2020 00:00
Orbit: 386 x 387 km, 45.0° (Epoch: 18 September)

Date Brightness Start Highest point End Pass type
(mag) Time Alt. Az. Time Alt. Az. Time Alt. Az.
01 Oct 2.9 00:05:43 10° SSE 00:06:26 11° SE 00:06:26 11° SE visible
02 Oct 1.9 00:41:19 10° SW 00:43:20 28° S 00:43:20 28° S visible
02 Oct 2.2 23:43:26 10° SSW 23:45:50 20° SE 23:47:47 12° E visible
03 Oct 3.2 01:19:01 10° WSW 01:20:04 19° WSW 01:20:04 19° WSW visible
04 Oct 0.6 00:20:29 10° SW 00:23:37 63° SSE 00:24:24 44° E visible
04 Oct 1.5 23:22:11 10° SW 23:25:07 35° SSE 23:28:04 10° E visible
05 Oct 1.9 00:58:33 10° W 01:00:52 40° WNW 01:00:52 40° WNW visible
05 Oct 0.6 23:59:53 10° WSW 00:03:03 79° NNW 00:05:00 21° ENE visible
06 Oct 4.1 01:36:55 10° WNW 01:37:16 12° WNW 01:37:16 12° WNW visible
07 Oct 1.4 00:38:10 10° W 00:41:13 42° N 00:41:19 42° N visible
07 Oct 1.1 23:39:26 10° W 23:42:33 54° NNW 23:45:20 12° ENE visible
